Location: Unspecified
(38.9820°N, 0.0000°E)
Time: 23:55:46
(UTC+00:00)

Tiangong 2 - Pass Details

Date: 24 May 2019
Orbit: 376 x 389 km, 42.8° (Epoch: 19 June)

Event Time Altitude Azimuth Distance (km) Brightness Sun altitude
Rises 20:08:04 0° 271° (W) 2,236 5.9 -9.8°
Reaches altitude 10° 20:10:11 10° 279° (W) 1,384 4.9 -10.1°
Maximum altitude 20:13:11 42° 352° (N) 546 2.2 -10.6°
Drops below altitude 10° 20:16:10 10° 66° (ENE) 1,382 3.6 -11.0°
Enters shadow 20:17:14 - 71° (ENE) 1,804 4.2 -11.2°
